Location: Oberstdorf
(47.4188°N, 10.2969°E)
Time: 03:30:29
(UTC+01:00)

Envisat - Visible Passes

Search period start: 22 January 2018 00:00
Search period end: 01 February 2018 00:00
Orbit: 764 x 766 km, 98.2° (Epoch: 21 January)

Date Brightness Start Highest point End Pass type
(mag) Time Alt. Az. Time Alt. Az. Time Alt. Az.
22 Jan 6.3 07:13:18 10° ENE 07:14:43 11° E 07:16:06 10° ESE visible
22 Jan 4.1 18:33:12 22° ENE 18:33:38 23° ENE 18:37:31 10° N visible
22 Jan 3.8 20:13:23 46° NW 20:13:23 46° NW 20:17:18 10° NNW visible
23 Jan 4.7 17:55:47 10° ENE 17:57:25 12° NE 17:59:16 10° NNE visible
23 Jan 2.9 19:35:58 66° NE 19:35:58 66° NE 19:40:36 10° N visible
23 Jan 5.6 21:16:09 16° WNW 21:16:09 16° WNW 21:18:19 10° NW visible
24 Jan 3.5 18:58:32 34° ENE 18:58:58 35° ENE 19:03:34 10° N visible
24 Jan 4.5 20:38:43 33° WNW 20:38:43 33° WNW 20:42:37 10° NNW visible
25 Jan 4.3 18:21:06 17° E 18:22:38 19° ENE 18:26:05 10° NNE visible
25 Jan 3.1 20:01:17 70° W 20:01:17 70° W 20:06:13 10° NNW visible
26 Jan 3.0 19:23:51 53° E 19:24:26 57° ENE 19:29:25 10° N visible
26 Jan 5.3 21:04:01 21° W 21:04:01 21° W 21:07:37 10° NW visible
27 Jan 3.8 18:46:23 25° E 18:47:56 29° ENE 18:52:17 10° N visible
27 Jan 4.0 20:26:35 42° WSW 20:26:48 42° W 20:31:38 10° NNW visible
28 Jan 4.5 18:08:55 11° E 18:11:38 16° ENE 18:14:34 10° NNE visible
28 Jan 2.9 19:49:07 63° S 19:49:58 87° WSW 19:55:06 10° NNW visible
28 Jan 5.8 21:29:18 12° W 21:29:45 12° W 21:31:45 10° WNW visible
29 Jan 3.2 19:11:39 34° ESE 19:13:21 46° ENE 19:18:12 10° N visible
29 Jan 4.9 20:51:49 25° WSW 20:52:34 25° W 20:56:47 10° NW visible
30 Jan 4.0 18:34:10 16° ESE 18:36:54 24° ENE 18:40:56 10° N visible
30 Jan 3.7 20:14:21 42° SW 20:15:36 52° W 20:20:36 10° NNW visible
31 Jan 4.7 17:58:27 10° E 18:00:40 13° NE 18:02:54 10° NNE visible
31 Jan 2.8 19:36:52 38° SSE 19:38:51 77° ENE 19:43:57 10° N visible
31 Jan 5.6 21:17:03 14° WSW 21:18:27 15° W 21:21:26 10° NW visible
